La Paz, Mexico

4:01 PM MDT on July 25, 2017 (GMT -0600)
Gen Manuel Marquez De Leon

Weather History for MMLP - October, 2011

Change the Weather History Date:

Monday, October 17, 2011

  Actual Average Record
Temperature  
Mean Temperature 85 °F -  
Max Temperature 97 °F 86 °F 101 °F (2012)
Min Temperature 73 °F 63 °F 60 °F (2007)
Cooling Degree Days 20    
Growing Degree Days 35 (Base 50)    
Moisture  
Dew Point 63 °F    
Average Humidity 50    
Maximum Humidity 76    
Minimum Humidity 18    
Precipitation  
Precipitation 0.00 in - - ()
Sea Level Pressure  
Sea Level Pressure 29.89 in    
Wind  
Wind Speed 6 mph ()    
Max Wind Speed 14 mph    
Max Gust Speed -    
Visibility 11.5 miles    
Events      
Averages and records for this station are not official NWS values.
T = Trace of Precipitation, MM = Missing Value Source: Averaged Metar Reports

Daily Weather History Graph

Daily Weather History Graph

Search for Another Location

Airport or City:

Trip Planner

Search our weather history database for the weather conditions in past years. The results will help you decide how hot, cold, wet, or windy it might be!

Date:

Astronomy

Oct. 17, 2011 Rise Set
Actual Time 7:19 AM MDT 6:53 PM MDT
Civil Twilight 6:56 AM MDT 7:16 PM MDT
Nautical Twilight 6:30 AM MDT 7:42 PM MDT
Astronomical Twilight 6:04 AM MDT 8:09 PM MDT
Moon 11:02 PM MDT (10/17) 12:02 PM MDT (10/17)
Length of Visible Light 12h 19m
Length of Day
11h 33m
Waning Gibbous, 73% of the Moon is Illuminated
Oct 17
Waning Gibbous
Oct 19
Last Quarter
Oct 26
New
Nov 2
First Quarter
Nov 10
Full

Hourly Weather History & Observations

Time (MDT) Temp. Heat Index Dew Point Humidity Pressure Visibility Wind Dir Wind Speed Gust Speed Precip Events Conditions
5:50 AM 74 °F - 67 °F 72% 29.91 in 2 mi SE 2.2 mph - -  
6:11 AM 71.6 °F - 60.8 °F 69% 29.94 in 10.0 mi South 6.9 mph - N/A   Partly Cloudy
6:44 AM 69.8 °F - 60.8 °F 73% 29.89 in 10.0 mi South 6.9 mph - N/A   Clear
7:40 AM 69.8 °F - 60.8 °F 73% 29.90 in 10.0 mi South 6.9 mph - N/A   Clear
8:42 AM 73.4 °F - 60.8 °F 65% 29.97 in 10.0 mi South 6.9 mph - N/A   Clear
8:45 AM 80 °F - 67 °F 56% 29.96 in 16 mi SE 4.5 mph - -  
9:41 AM 82.4 °F 85.4 °F 68.0 °F 62% 29.93 in 12.0 mi South 6.9 mph - N/A   Clear
10:41 AM 89.6 °F 92.2 °F 66.2 °F 46% 29.92 in 12.0 mi South 6.9 mph - N/A   Clear
11:42 AM 95.0 °F - 46.4 °F 19% 29.99 in 15.0 mi Calm Calm - N/A   Clear
11:50 AM 96 °F - 70 °F 33% 29.91 in 19 mi South 4.5 mph - -  
12:40 PM 95.0 °F - 44.6 °F 18% 29.88 in 15.0 mi North 9.2 mph - N/A   Clear
1:43 PM 93.2 °F - 48.2 °F 21% 29.85 in 15.0 mi NW 11.5 mph - N/A   Clear
2:45 PM 93.2 °F 90.8 °F 53.6 °F 26% 29.89 in 15.0 mi North 13.8 mph - N/A   Clear
2:50 PM 97 °F - 65 °F 26% 29.83 in 19 mi NW 6.7 mph - -  
3:43 PM 89.6 °F 87.3 °F 53.6 °F 29% 29.83 in 15.0 mi North 13.8 mph - N/A   Clear
4:47 PM 91.4 °F 90.7 °F 59.0 °F 34% 29.82 in 10.0 mi NW 11.5 mph - N/A   Clear
5:50 PM 93 °F - 69 °F 35% 29.82 in 19 mi NW 8.9 mph - -  
5:53 PM 89.6 °F 91.1 °F 64.4 °F 43% 29.93 in 10.0 mi NW 9.2 mph - N/A   Clear
6:52 PM 86.0 °F 90.4 °F 69.8 °F 58% 29.83 in 10.0 mi North 5.8 mph - N/A   Clear
7:49 PM 82.4 °F 87.2 °F 71.6 °F 70% 29.85 in 10.0 mi NNW 4.6 mph - N/A   Clear
8:45 PM 82.4 °F 86.3 °F 69.8 °F 66% 29.96 in 10.0 mi WSW 3.5 mph - N/A   Clear
8:50 PM 87 °F - 75 °F 61% 29.85 in 2 mi NW 2.2 mph - -  
9:46 PM 78.8 °F - 64.4 °F 61% 29.87 in 10.0 mi South 4.6 mph - N/A   Clear
10:48 PM 78.8 °F - 66.2 °F 65% 29.87 in 10.0 mi SSE 6.9 mph - N/A   Clear
11:50 PM 80 °F - 74 °F 76% 29.84 in 2 mi South 6.7 mph - -